EST,Max TemperatureF,Mean TemperatureF,Min TemperatureF,Max Dew PointF,MeanDew PointF,Min DewpointF,Max Humidity, Mean Humidity, Min Humidity, Max Sea Level PressureIn, Mean Sea Level PressureIn, Min Sea Level PressureIn, Max VisibilityMiles, Mean VisibilityMiles, Min VisibilityMiles, Max Wind SpeedMPH, Mean Wind SpeedMPH, Max Gust SpeedMPH,PrecipitationIn, CloudCover, Events, WindDirDegrees
2013-1-1,77,62,46,54,49,43,87,74,44,30.24,30.13,30.05,10,8,1,18,2,24,0.00,3,,212
2013-1-2,77,64,51,63,55,46,88,80,57,30.09,30.04,29.99,10,6,0,14,3,16,0.00,3,,216
2013-1-3,64,58,51,61,55,45,94,82,76,30.24,30.13,30.05,10,5,0,14,3,17,0.01,8,,21
2013-1-4,60,55,48,48,45,43,82,75,59,30.33,30.27,30.22,10,10,10,13,7,,0.01,5,,17
2013-1-5,69,56,44,54,46,37,82,71,52,30.34,30.29,30.23,10,10,7,9,4,,0.00,3,,46
2013-1-6,75,65,55,59,52,48,82,75,57,30.24,30.17,30.09,10,10,6,9,4,,0.01,6,,30
2013-1-7,66,58,51,52,46,37,82,67,48,30.28,30.21,30.17,10,10,10,10,7,16,0.01,4,,32
2013-1-8,78,68,57,63,56,46,83,75,54,30.26,30.20,30.17,10,10,10,12,5,,0.00,5,,44
2013-1-9,80,73,66,64,62,54,83,74,39,30.33,30.27,30.22,10,8,1,9,4,,0.00,6,,84
2013-1-10,82,74,66,63,60,54,78,70,39,30.33,30.30,30.24,10,9,5,8,3,,0.00,5,,99
2013-1-11,82,71,60,61,57,55,88,69,39,30.28,30.22,30.16,10,10,7,9,2,22,0.00,1,,159
2013-1-12,82,68,55,61,54,50,82,67,39,30.21,30.16,30.11,10,8,0,8,1,,0.00,1,Fog,138
2013-1-13,80,70,60,59,56,52,77,67,39,30.19,30.12,30.08,10,10,2,10,1,,0.00,3,,166
2013-1-14,82,70,57,61,54,50,82,70,37,30.21,30.16,30.12,10,9,0,13,1,16,0.00,2,Fog,179
2013-1-15,82,70,57,61,54,50,83,67,37,30.17,30.12,30.06,10,8,0,13,2,17,0.00,4,Fog,186
2013-1-16,80,68,55,59,53,48,82,71,39,30.12,30.06,30.01,10,9,0,12,1,,0.00,2,,208
2013-1-17,66,54,42,61,45,27,83,70,48,30.18,30.06,30.00,10,7,0,17,5,28,0.00,2,Fog,244
2013-1-18,62,48,33,46,33,27,75,61,48,30.36,30.28,30.19,10,10,10,14,6,23,0.00,3,,3
2013-1-19,73,60,48,55,44,37,77,66,41,30.35,30.27,30.18,10,10,10,10,7,,0.00,3,,30
2013-1-20,73,63,53,55,49,45,94,68,38,30.22,30.15,30.08,10,9,5,10,5,16,0.00,5,,25
2013-1-21,71,61,51,52,46,41,88,65,43,30.14,30.09,30.04,10,10,10,9,2,,0.00,4,,345
2013-1-22,62,52,41,39,33,27,76,54,26,30.31,30.21,30.11,10,10,6,13,4,17,0.00,1,,4
2013-1-23,66,49,32,32,29,27,93,60,24,30.42,30.33,30.30,10,10,5,9,1,,0.00,0,,5
2013-1-24,73,54,35,50,38,28,93,69,41,30.35,30.29,30.24,10,8,0,10,2,16,0.00,1,,238
2013-1-25,75,60,44,54,43,37,100,69,31,30.33,30.27,30.19,10,5,0,9,2,21,0.00,3,Fog,229
2013-1-26,75,60,44,55,46,36,100,74,44,30.29,30.24,30.18,10,5,0,10,2,,0.00,4,Fog,225
2013-1-27,78,63,48,61,50,43,100,76,44,30.35,30.30,30.24,10,5,0,9,2,,0.00,5,Fog,51
2013-1-28,78,68,57,61,54,52,94,71,47,30.36,30.31,30.24,10,10,6,12,3,,0.00,3,,80
2013-1-29,82,70,59,66,58,52,100,71,42,30.28,30.19,30.10,10,8,0,8,3,16,0.00,3,Fog,149
2013-1-30,84,75,62,64,59,54,88,65,37,30.11,29.99,29.87,10,10,8,25,9,32,0.03,2,,180
2013-1-31,60,50,39,48,35,19,82,57,20,30.27,30.12,29.97,10,10,5,14,7,21,0.08,2,,305